Regional Weather Roundup
Issued by NWS

Home | Current Version | Previous Version | Graphics & Text | Print | Product List | Glossary On
Versions: 1 2 3 4 5 6 7 8 9 10 11 12 13 14 15 16 17 18 19 20 21 22 23 24 25 26 27 28 29 30 31 32 33 34 35 36 37 38 39 40 41 42 43 44 45 46 47 48 49 50
000
ASUS43 KMKX 241700
RWRWI

WISCONSIN REGIONAL WEATHER ROUNDUP
NATIONAL WEATHER SERVICE MILWAUKEE/SULLIVAN WI
1200 PM CDT THU APR 24 2014

NOTE: "FAIR" INDICATES FEW OR NO CLOUDS BELOW 12,000 FEET WITH NO
SIGNIFICANT WEATHER AND/OR OBSTRUCTIONS TO VISIBILITY.

WIZ001-002-006>008-014>016-023>028-241800-
NORTHWEST WISCONSIN

CITY           SKY/WX    TMP DP  RH WIND       PRES   REMARKS
SUPERIOR ARPT  LGT RAIN  34  33  98 NE10G16   29.89F WCI  26
ASHLAND        LGT RAIN  37  35  92 NE8       29.93F WCI  31
HAYWARD        LGT RAIN  37  35  92 E9        29.85F FOG     WCI  30
SIREN          RAIN      39  38  97 E6        29.80F WCI  35
RICE LAKE      LGT RAIN  40  38  92 E9G16     29.82F WCI  34
LADYSMITH      LGT RAIN  39  37  92 E12G18    29.86F WCI  32
EAU CLAIRE     NOT AVBL
MENOMONIE      RAIN      41  40  99 E10       29.79F
NEW RICHMOND   RAIN      39  39 100 E8        29.77F WCI  34
OSCEOLA        RAIN      40  40  99 E10       29.80F WCI  34
$$

WIZ003>005-009-010-017-018-241800-
NORTH CENTRAL WISCONSIN

CITY           SKY/WX    TMP DP  RH WIND       PRES   REMARKS
WOODRUFF       LGT SNOW  37  33  88 SE14      29.93F WCI  28
RHINELANDER    LGT SNOW  33  31  92 E13       29.94F FOG     WCI  24
EAGLE RIVER    LGT SNOW  34  32  92 SE8G16    29.96F WCI  27
LAND O LAKES   LGT SNOW  37  32  82 SE12G20   29.97F WCI  29
PHILLIPS       LGT SNOW  33  32  97 E9        29.88F WCI  25
TOMAHAWK       LGT RAIN  34  32  93 E7        29.92F WCI  28
MEDFORD        RAIN      37  35  94 E16G24    29.86F WCI  27
MERRILL        LGT RAIN  37  36  95 SE14G22   29.91F WCI  28
$$

WIZ029-030-035-036-043>047-241800-
CENTRAL WISCONSIN

CITY           SKY/WX    TMP DP  RH WIND       PRES   REMARKS
WAUSAU         MIX PCPN  37  35  92 E15       29.89F FOG     WCI  28
MOSINEE        LGT RAIN  37  37 100 E14G21    29.90F WCI  29
MARSHFIELD     LGT RAIN  40  37  89 SE21G29   29.84F FOG     WCI  30
STEVENS POINT  LGT RAIN  37  36  94 E15       29.90F WCI  28
WAUPACA        NOT AVBL
WAUTOMA        NOT AVBL
WISC RAPIDS    LGT RAIN  42  38  85 E14G20    29.88F
CAMP DOUGLAS   NOT AVBL
$$

WIZ011>013-019>022-031-037>040-048>050-241800-
NORTHEAST WISCONSIN

CITY           SKY/WX    TMP DP  RH WIND       PRES   REMARKS
ANTIGO         MIX PCPN  33  32  96 E15       29.95F WCI  23
STURGEON BAY   CLOUDY    39  32  75 SE7       30.05F WCI  34
GREEN BAY      LGT RAIN  42  39  89 E10       29.99F
MANITOWOC      NOT AVBL
APPLETON       CLOUDY    43  39  87 E7        29.96F
CLINTONVILLE   LGT RAIN  37  37 100 E10G16    29.98F WCI  30
OSHKOSH        CLOUDY    44  37  76 E12       29.93F
$$

WIZ032>034-041-042-053>061-241800-
SOUTHWEST WISCONSIN

CITY           SKY/WX    TMP DP  RH WIND       PRES   REMARKS
LA CROSSE      LGT RAIN  43  40  89 SE12G20   29.76F FOG
SPARTA         RAIN      41  39  93 SE10      29.82F
VIROQUA        CLOUDY    41  40  98 E16G25    29.78S
BOSCOBEL       LGT RAIN  48  41  76 NE5       29.79F
PRAIRIE DU CHI RAIN      46  40  80 E3        29.78R
PLATTEVILLE    CLOUDY    54  40  60 SE18G26   29.77F
$$

WIZ056-057-062-063-064-067-068-241800-
SOUTH CENTRAL WISCONSIN

CITY           SKY/WX    TMP DP  RH WIND       PRES   REMARKS
BARABOO/DELLS  DRIZZLE   43  37  79 E10       29.84F
LONE ROCK      NOT AVBL
WATERTOWN      CLOUDY    49  37  64 E14G20    29.88F
MADISON        CLOUDY    51  39  63 SE17      29.84F
MIDDLETON      CLOUDY    50  37  61 SE14      29.83F
MONROE         RAIN      51  41  67 SE15G22   29.81F
JANESVILLE     CLOUDY    57  34  41 SE18G29   29.84F
$$

WIZ051-052-058>065-066-070>072-241800-
SOUTHEAST WISCONSIN

CITY           SKY/WX    TMP DP  RH WIND       PRES   REMARKS
MILWAUKEE      CLOUDY    50  37  61 SE17      29.96F
WAUKESHA       CLOUDY    48  36  61 S20G29    29.92F
MILWAUKEE/TIMM NOT AVBL
RACINE         CLOUDY    50  37  61 SE17G25   29.96F
BURLINGTON     CLOUDY    52  36  55 E16G22    29.91F
KENOSHA        CLOUDY    56  37  49 SE17G28   29.93F
FOND DU LAC    CLOUDY    46  36  68 SE15G22   29.92F
SHEBOYGAN      CLOUDY    42  35  76 E15       29.97F
WEST BEND      CLOUDY    43  34  70 E15       29.95F
JUNEAU         CLOUDY    45  33  64 E15       29.90F
$$

LSZ147-162-241800-
LAKE SUPERIOR

STATION/POSITION TIME  TEMP    WIND        PRES    WAVE
                       AIR SEA DIR/SP/G            HT/PER
                 (UTC) (F)     (DEG/KT/KT) (MB)    (FT/S)
DEVILS ISLAND    1600   36      90/ 18/ 19 1015.8R
PORT WING        1640   38      90/  5/  8 1013.5S
SAXON HARBOR     1640          120/  1/  5 1013.9F
$$

LMZ867-665-643>646-241800-
LAKE MICHIGAN

STATION/POSITION TIME  TEMP    WIND        PRES    WAVE
                       AIR SEA DIR/SP/G            HT/PER
                 (UTC) (F)     (DEG/KT/KT) (MB)    (FT/S)
NORTHPORT PIER   1600   36     120/  3/  4 1019.3R
SISTER BAY       1608   44     130/  7/ 10   N/A
KEWAUNEE LAKESHO 1600   37     140/  5/  7 1018.4F
SHEBOYGAN LAKESH 1600   40     100/ 19/ 21 1016.3F
PORT WASHINGTON  1640   40     100/ 12/ 15 1015.6F
MILWAUKEE LAKESH 1600   41     160/  7/  9   N/A
KENOSHA   LAKESH 1600   42     130/ 14/ 17   N/A
$$

TC  - TEMPERATURE IN CELSIUS
VSB - VISIBILITY IN STATUTE MILES
WCI - WIND CHILL INDEX
HX  - HEAT INDEX




USA.gov is the U.S. government's official web portal to all federal, state and local government web resources and services.